Regional Weather Roundup
Issued by NWS

Home | Current Version | Previous Version | Graphics & Text | Print | Product List | Glossary On
Versions: 1 2 3 4 5 6 7 8 9 10 11 12 13 14 15 16 17 18 19 20 21 22 23 24 25 26 27 28 29 30 31 32 33 34 35 36 37 38 39 40 41 42 43 44 45 46 47 48 49 50
000
ASUS43 KLOT 281712
RWRIL

ILLINOIS REGIONAL WEATHER ROUNDUP
NATIONAL WEATHER SERVICE CHICAGO/ROMEOVILLE IL
1200 PM CDT SAT MAR 28 2015

NOTE: "FAIR" INDICATES FEW OR NO CLOUDS BELOW 12,000 FEET WITH NO
SIGNIFICANT WEATHER AND/OR OBSTRUCTIONS TO VISIBILITY.

* THESE STATIONS ARE NOT UNDER NWS QUALITY CONTROL. THEY ALSO MAY NOT
  REPORT WEATHER SUCH AS PRECIPITATION OR FOG.

ILZ001-002-007-009-015-016-024-281800-
NORTHWEST ILLINOIS

CITY           SKY/WX    TMP DP  RH WIND       PRES   REMARKS
MOLINE         SUNNY     36  10  34 VRB6      30.33F WCI  31
STERLING*      SUNNY     36  16  44 E5        30.35S WCI  32
SAVANNA*       SUNNY     35  14  43 SW9       30.34S WCI  27
$$

ILZ003-004-008-010-011-017-018-281800-
NORTH CENTRAL ILLINOIS

CITY           SKY/WX    TMP DP  RH WIND       PRES   REMARKS
ROCKFORD       MOSUNNY   35  10  35 E7        30.36S WCI  29
FREEPORT*      SUNNY     33  12  42 CALM      30.35S
ROCHELLE*      SUNNY     33  15  48 E8        30.34F WCI  25
DE KALB*       SUNNY     32  12  43 NE6       30.34S WCI  26
PERU*          SUNNY     35  12  38 E9        30.35S WCI  28
$$

ILZ005-006-012>014-019>023-281800-
NORTHEAST ILLINOIS

CITY           SKY/WX    TMP DP  RH WIND       PRES   REMARKS
CHICAGO-OHARE  SUNNY     32  10  40 NE8       30.34S WCI  25
CHICAGO-MIDWAY MOSUNNY   34  10  37 NE7       30.35S WCI  28
AURORA         SUNNY     35   9  33 NE9       30.34S WCI  28
LANSING*       SUNNY     32   6  34 NE9       30.35R WCI  24
JOLIET*        SUNNY     36  11  35 N6        30.34S WCI  31
WAUKEGAN       SUNNY     29  15  56 E9        30.34S WCI  20
DUPAGE AIRPORT SUNNY     34   8  33 E9        30.33S WCI  27
KANKAKEE*      SUNNY     33  12  43 N6        30.35S WCI  27
WHEELING       SUNNY     31   8  38 E12       30.36F WCI  22
MORRIS*        SUNNY     34  12  40 E3        30.34S
ROMEOVILLE*    SUNNY     34   7  32 E12G17    30.34S WCI  25
NORTHERLY ISL    N/A     28  13  53 N6          N/A  WCI  22
$$

LMZ740>746-281800-
SOUTHERN LAKE MICHIGAN

STATION/POSITION SKY/WX   TEMP    WIND        PRES    VSBY  WAVE
                          AIR SEA DIR/SP/G                  HT/PER
                          (F)     (DEG/KT/KT) (MB)    (MI)  (FT/S)
HARRISON CRIB              25      40/  7/  8   N/A
BURNHAM HARBOR             28      40/  7/ 10   N/A
CALUMET HARBOR             26      30/  8/ 11 1026.7R
BURNS HARBOR               25      50/  6/  9 1028.4R
MICHIGAN CITY              22     360/  9/ 11   N/A
$$

ILZ025>027-034>036-040-047-049-050-058-095>099-281800-
WEST-CENTRAL ILLINOIS

CITY           SKY/WX    TMP DP  RH WIND       PRES   REMARKS
QUINCY         SUNNY     37  14  38 E9        30.31S WCI  30
GALESBURG*     SUNNY     35  11  36 SE6       30.34S WCI  30
MACOMB*        SUNNY     35  14  42 SE6       30.35F WCI  30
JACKSONVILLE*  SUNNY     36  18  47 E9        30.35S WCI  29
PITTSFIELD*    SUNNY     38  21  50 SE9       30.33F WCI  31
$$

ILZ028>032-037-038-041>044-048-051>054-059>061-281800-
CENTRAL ILLINOIS

CITY           SKY/WX    TMP DP  RH WIND       PRES   REMARKS
PONTIAC        SUNNY     35  12  39 NE8       30.35S WCI  28
BLOOMINGTON    SUNNY     35  13  40 NE8       30.34S WCI  28
DECATUR        SUNNY     34  14  43 NE7       30.34F WCI  28
PEORIA         SUNNY     36  11  35 MISG      30.35S
LACON*         SUNNY     34  10  36 E7        30.35S WCI  28
LINCOLN*       SUNNY     35  17  47 E3        30.36F
SPRINGFIELD    SUNNY     36  13  38 VRB6      30.35S WCI  31
TAYLORVILLE    SUNNY     32  18  55 E7        30.35S WCI  26
$$

ILZ033-039-045-046-055>057-062-063-281800-
EAST-CENTRAL ILLINOIS

CITY           SKY/WX    TMP DP  RH WIND       PRES   REMARKS
CHAMPAIGN      SUNNY     33  12  41 NE8       30.33S WCI  26
DANVILLE*      SUNNY     31  12  45 E3        30.31S
RANTOUL*       SUNNY     33  13  43 NE7       30.33S WCI  27
MATTOON        SUNNY     31  16  54 NE7       30.33S WCI  24
PARIS*         SUNNY     32  16  50 E3        30.34S
$$

ILZ079-100>102-281800-
SOUTHWEST ILLINOIS

CITY           SKY/WX    TMP DP  RH WIND       PRES   REMARKS
BELLEVILLE     SUNNY     37  20  49 VRB5      30.34S WCI  34
CAHOKIA*       SUNNY     39  19  44 E6        30.34S WCI  35
SPARTA*        SUNNY     36  21  55 NE5       30.35S WCI  32
$$

ILZ064>066-069>071-074>076-080>082-084>086-088>090-092>094-281800-
SOUTH-CENTRAL ILLINOIS

CITY           SKY/WX    TMP DP  RH WIND       PRES   REMARKS
CARBONDALE     SUNNY     37  19  48 CALM      30.35S
CAIRO*         MOSUNNY   39  23  53 N5        30.34S
EFFINGHAM*     SUNNY     33  12  41 N3        30.36S
MARION         PTSUNNY   37  19  48 N6        30.36R WCI  33
MT. VERNON     SUNNY     36  14  41 CALM      30.35S
CENTRALIA*     SUNNY     34  18  52 SW5       30.34S WCI  30
SALEM*         SUNNY     36  19  50 N6        30.35S WCI  31
METROPOLIS*    SUNNY     38  20  48 NE6       30.33S WCI  34
$$

ILZ067-068-072-073-078-083-087-091-281800-
SOUTHEAST ILLINOIS

CITY           SKY/WX    TMP DP  RH WIND       PRES   REMARKS
LAWRENCEVILLE  SUNNY     34  17  50 E7        30.35S WCI  28
FLORA*         SUNNY     32  16  51 E5        30.35F WCI  27
FAIRFIELD*     SUNNY     33  16  49 CALM      30.34S
HARRISBURG*    SUNNY     36  17  46 CALM      30.36S
ROBINSON*      SUNNY     33  17  50 NE5       30.36S WCI  29
CARMI*         SUNNY     34  16  48 N7        30.35S WCI  28
$$

ABBREVIATIONS USED IN REMARKS
   TC - TEMPERATURE IN CELSIUS
  WCI - WIND CHILL INDEX
   HX - HEAT INDEX
  VSB - VISIBILITY
$$




USA.gov is the U.S. government's official web portal to all federal, state and local government web resources and services.